Location: Newark
(40.9833°N, 0.0333°W)
Time: 17:08:07
(UTC+00:00)

Altair - Visible Passes

Search period start: 21 October 2020 00:00
Search period end: 31 October 2020 00:00
Orbit: 1502 x 1682 km, 47.2° (Epoch: 20 October)

Date Brightness Start Highest point End Pass type
(mag) Time Alt. Az. Time Alt. Az. Time Alt. Az.
21 Oct 9.5 04:44:28 10° S 04:51:11 23° SE 04:58:04 10° E visible
22 Oct 9.5 04:19:55 10° S 04:26:10 20° SE 04:32:32 10° E visible
23 Oct 9.5 03:55:28 10° SSE 04:01:09 18° SE 04:06:56 10° E visible
24 Oct 9.6 03:31:08 10° SSE 03:36:08 16° ESE 03:41:13 10° E visible
24 Oct 8.1 05:30:13 10° SW 05:39:14 59° SE 05:48:35 10° ENE visible
25 Oct 9.6 03:06:59 10° SSE 03:11:08 14° ESE 03:15:20 10° E visible
25 Oct 8.1 05:05:13 10° SSW 05:14:07 54° SE 05:23:21 10° ENE visible
26 Oct 9.6 02:43:11 10° SE 02:46:08 12° ESE 02:49:08 10° ESE visible
26 Oct 8.2 04:40:15 10° SSW 04:49:01 50° SE 04:58:05 10° ENE visible
27 Oct 8.2 04:15:23 10° SSW 04:23:55 46° SE 04:32:49 10° ENE visible
28 Oct 8.3 03:52:33 18° SSW 03:58:51 43° SE 04:07:33 10° ENE visible
28 Oct 7.6 05:53:45 10° WSW 06:03:05 81° NNW 06:12:48 10° ENE visible
29 Oct 8.4 03:29:34 26° S 03:33:46 39° SE 03:42:15 10° ENE visible
29 Oct 7.5 05:28:34 10° WSW 05:37:52 85° NNW 05:47:34 10° ENE visible
30 Oct 8.4 03:06:28 32° SSE 03:08:43 36° SE 03:16:57 10° ENE visible
30 Oct 7.5 05:04:32 15° WSW 05:12:42 88° NNW 05:22:20 10° ENE visible
